FW0385 Weather Reports


time (UTC)temp
C
wind
direction
speed
KPH
gust
KPH
rain 1hr
cm
rain 24hr
cm
rain mn
cm
humidity
%
barometer
mb
20260510094506 12 173 3.2 6.4 0.00 0.53 0.00 89 1009.2
20260510093003 12 180 3.2 6.4 0.00 0.53 0.00 89 1009.0
20260510091502 12 188 1.6 4.8 0.00 0.53 0.00 88 1009.1
20260510090101 12 181 1.6 8.0 0.00 0.53 0.00 88 1008.9
20260510084602 12 169 4.8 8.0 0.00 0.71 0.00 87 1009.0
20260510083055 13 242 4.8 16.1 0.00 0.71 0.00 87 1008.9
20260510081621 13 238 4.8 12.9 0.00 0.71 0.00 87 1008.8
20260510080050 13 244 4.8 14.5 0.00 0.71 0.00 86 1008.7
20260510074549 13 216 6.4 14.5 0.00 0.99 0.00 86 1008.5
20260510073057 13 225 8.0 17.7 0.00 0.99 0.00 85 1008.6
20260510071545 13 226 8.0 14.5 0.00 0.99 0.00 85 1008.6
20260510070043 13 244 8.0 14.5 0.00 0.99 0.00 85 1008.6
20260510064553 13 262 8.0 16.1 0.00 0.99 0.00 85 1008.5
20260510063043 13 215 6.4 16.1 0.00 0.99 0.00 84 1008.5
20260510061541 13 257 4.8 14.5 0.00 0.99 0.00 84 1008.6
20260510060043 13 207 8.0 16.1 0.00 0.99 0.00 84 1008.7
20260510054536 13 192 4.8 16.1 0.00 0.99 0.00 83 1008.7
20260510053041 14 221 1.6 19.3 0.00 0.99 0.00 83 1008.8
20260510051530 14 248 9.7 19.3 0.00 0.99 0.00 83 1008.8
20260510050028 14 222 6.4 16.1 0.00 0.99 0.00 82 1008.7
20260510044543 14 248 8.0 19.3 0.00 0.99 0.00 82 1008.7
20260510043025 15 223 8.0 22.5 0.00 0.99 0.00 81 1008.7
20260510041522 15 215 4.8 19.3 0.00 0.99 0.00 81 1008.6
20260510040034 15 218 8.0 19.3 0.00 0.99 0.00 80 1008.5
20260510034521 15 202 8.0 19.3 0.00 0.99 0.99 79 1008.5
20260510033025 15 232 9.7 19.3 0.00 0.99 0.99 79 1008.4
20260510031519 15 190 9.7 19.3 0.00 0.99 0.99 79 1008.2
20260510030019 15 240 6.4 19.3 0.00 0.99 0.99 79 1008.2
20260510024519 15 223 4.8 16.1 0.00 0.99 0.99 78 1008.0
20260510023018 15 217 6.4 24.1 0.00 0.99 0.99 77 1007.8
20260510021517 15 221 6.4 19.3 0.00 0.99 0.99 77 1007.8
20260510020021 15 215 8.0 16.1 0.00 0.99 0.99 77 1007.6
20260510014516 15 183 6.4 14.5 0.00 0.99 0.99 76 1007.4
20260510013020 15 217 4.8 16.1 0.00 0.99 0.99 75 1007.3
20260510011520 15 216 6.4 16.1 0.00 0.99 0.99 74 1007.1
20260510010025 16 212 4.8 11.3 0.00 0.99 0.99 73 1006.9
20260510004520 16 207 8.0 12.9 0.00 0.99 0.99 72 1006.8
20260510003019 16 232 4.8 16.1 0.00 0.99 0.99 71 1006.6
20260510001518 17 209 9.7 19.3 0.00 0.99 0.99 69 1006.5
20260510000019 17 238 9.7 25.7 0.00 0.99 0.99 68 1006.3
20260509234524 17 216 6.4 16.1 0.00 0.99 0.99 67 1006.3
20260509233016 18 239 4.8 22.5 0.00 0.99 0.99 66 1006.2
20260509231519 18 228 8.0 24.1 0.00 0.99 0.99 65 1006.1
20260509230021 18 234 8.0 29.0 0.00 0.99 0.99 66 1006.2
20260509224515 18 167 14.5 29.0 0.00 0.99 0.99 63 1006.0
20260509223013 18 249 9.7 22.5 0.00 0.99 0.99 64 1006.6
20260509221512 18 246 4.8 22.5 0.00 0.99 0.99 65 1006.6
20260509220013 18 233 12.9 27.4 0.00 0.99 0.99 66 1006.6
20260509214511 18 143 14.5 25.7 0.00 0.99 0.99 65 1006.6
20260509213010 18 224 9.7 17.7 0.00 0.99 0.99 66 1006.6
20260509211509 18 256 12.9 25.7 0.00 0.99 0.99 64 1006.7
20260509210017 18 199 6.4 22.5 0.00 0.99 0.99 65 1006.6
20260509204507 18 217 12.9 17.7 0.00 0.99 0.99 65 1006.7
20260509203007 18 270 6.4 27.4 0.00 0.99 0.99 65 1006.7
20260509201504 18 249 4.8 24.1 0.00 0.99 0.99 68 1006.9
20260509200003 17 265 11.3 20.9 0.00 0.99 0.99 67 1007.2
20260509194502 17 312 9.7 29.0 0.00 0.99 0.99 69 1007.3
20260509193001 17 198 11.3 17.7 0.00 0.99 0.99 65 1007.3
20260509191600 17 252 8.0 22.5 0.00 0.99 0.99 67 1007.3
20260509190036 17 191 8.0 20.9 0.00 0.99 0.99 70 1007.5
20260509184539 16 290 8.0 20.9 0.00 0.99 0.99 71 1007.6
20260509183028 16 262 14.5 27.4 0.00 0.99 0.99 73 1007.7
20260509181527 16 258 8.0 24.1 0.00 0.99 0.99 78 1007.8
20260509180029 16 231 16.1 27.4 0.00 0.99 0.99 76 1007.7
20260509174526 16 218 8.0 19.3 0.00 0.99 0.99 79 1007.7
20260509173022 15 205 11.3 24.1 0.00 0.99 0.99 84 1007.7
20260509171528 15 183 14.5 24.1 0.00 0.99 0.99 88 1007.7
20260509170017 13 190 9.7 19.3 0.00 0.99 0.99 93 1007.5
20260509164515 13 175 9.7 17.7 0.00 0.99 0.99 94 1007.5
20260509163013 12 182 11.3 14.5 0.00 0.99 0.99 95 1007.4
20260509161511 11 175 6.4 14.5 0.00 0.99 0.99 95 1007.6
20260509160017 11 173 4.8 9.7 0.00 0.99 0.99 95 1007.7
20260509154511 11 179 6.4 11.3 0.00 0.99 0.99 96 1007.6
20260509153009 11 155 9.7 14.5 0.00 0.99 0.99 96 1007.4
20260509151509 11 169 11.3 17.7 0.00 0.99 0.99 96 1007.5
20260509150007 11 163 8.0 12.9 0.00 0.99 0.99 96 1007.5
20260509144506 11 167 12.9 19.3 0.03 0.99 0.99 96 1007.6
20260509143049 10 163 9.7 11.3 0.05 0.99 0.99 96 1007.8
20260509141546 10 158 8.0 12.9 0.08 0.99 0.99 96 1007.8
20260509140043 10 200 3.2 9.7 0.10 0.99 0.99 95 1008.0
20260509134543 10 209 1.6 6.4 0.08 0.97 0.97 95 1008.1
20260509133038 10 202 0.0 6.4 0.08 0.94 0.94 95 1008.3
20260509131541 10 208 3.2 9.7 0.08 0.91 0.91 95 1008.3
20260509130037 10 186 1.6 6.4 0.08 0.89 0.89 95 1008.3
20260509124556 10 187 1.6 6.4 0.10 0.89 0.89 95 1008.1
20260509123034 10 187 1.6 6.4 0.13 0.86 0.86 95 1008.2
20260509121534 10 196 3.2 8.0 0.10 0.84 0.84 94 1008.4
20260509120029 10 195 3.2 8.0 0.13 0.81 0.81 94 1008.5
20260509114528 10 189 3.2 6.4 0.13 0.79 0.79 94 1008.4
20260509113027 10 221 3.2 6.4 0.13 0.71 0.71 94 1008.3
20260509111526 10 192 3.2 8.0 0.15 0.71 0.71 93 1008.2
20260509110021 10 207 1.6 8.0 0.13 0.69 0.69 93 1008.2
20260509104530 10 200 3.2 8.0 0.13 0.66 0.66 93 1008.2
20260509103017 10 188 3.2 9.7 0.13 0.61 0.61 92 1008.3
20260509101518 10 190 1.6 6.4 0.10 0.58 0.58 92 1008.1
20260509100026 10 198 1.6 6.4 0.10 0.56 0.56 92 1008.1